Location: ????
(33.4003°N, 35.4531°E)
Time: 20:05:47
(UTC+00:00)

Daily predictions for brighter satellites

Satellite Brightness Start Highest point End
(mag) Time Altitude Azimuth Time Altitude Azimuth Time Altitude Azimuth
COBE Rocket 4.0 15:24:00 10° NNE 15:29:10 73° E 15:34:12 10° S
Cosmos 1606 Rocket 3.6 15:25:18 10° S 15:29:39 61° E 15:33:59 10° NNE
CSL-04 Rocket 4.5 15:26:20 10° SE 15:31:09 31° ENE 15:35:56 10° N
Cosmos 2285 Rocket 4.3 15:29:06 10° N 15:35:15 45° ENE 15:41:20 10° SE
SWAS 4.4 15:31:04 10° SSW 15:35:16 66° ESE 15:39:30 10° NNE
SMAP 4.1 15:31:47 10° S 15:36:18 53° W 15:40:52 10° NNW
Envisat 3.0 15:33:33 10° SSE 15:38:32 60° ENE 15:43:31 10° N
NOAA 12 4.1 15:35:48 10° SSE 15:41:03 87° ENE 15:46:22 10° NNW
Cosmos 1758 Rocket 3.5 15:39:45 10° N 15:44:13 74° E 15:48:40 10° S
SL-4 R/B 3.5 15:46:02 10° NNW 15:48:40 18° NNE 15:50:29 13° ENE
Cosmos 1271 Rocket 2.8 15:49:31 10° N 15:53:26 58° E 15:57:21 10° SSE
Atlas Centaur 2 3.7 15:49:49 10° W 15:55:27 31° SSW 16:00:03 10° SE
YAOGAN 1 2.7 15:53:17 10° SSE 15:57:26 49° ENE 16:01:37 10° N
SKYMED 2 4.1 15:54:03 10° N 15:58:20 61° WNW 16:02:36 10° SSW
Cosmos 1953 3.7 15:55:45 10° SSW 15:59:36 42° W 16:03:28 10° N
Cosmos 1356 3.4 15:56:57 10° S 16:00:18 55° E 16:03:40 10° NNE
Cosmos 1626 4.0 15:58:36 10° NNW 16:01:58 34° W 16:05:20 10° SSW
Cosmos 1726 2.0 15:59:04 10° S 16:02:41 65° E 16:06:20 10° NNE
CZ-4C R/B 3.0 15:55:34 10° NNW 16:03:12 81° ENE 16:11:37 10° SSE
BREEZE-M DEB (TANK) 3.8 15:59:00 10° WSW 16:05:49 49° NW 16:08:19 12° NNE
BREEZE M DEB (TANK) 4.4 16:04:42 10° N 16:06:50 16° NE 16:07:40 15° NE
COSMOS 2406 4.1 16:02:55 10° N 16:07:52 29° ENE 16:10:38 20° ESE
Cosmos 1703 3.9 16:05:10 10° NNE 16:08:46 33° E 16:12:19 10° SE
FengYun 1-2 T 4.3 16:04:45 10° SSE 16:10:25 86° WSW 16:16:05 10° NNW
Meteosat 1 Rocket2 4.4 16:08:09 10° SSW 16:10:48 19° SSE 16:12:00 17° SE
CSL-04 Debris 4.1 16:05:42 10° SSE 16:11:05 74° ENE 16:16:33 10° N
USA 238 DEB 4.1 16:07:02 10° S 16:12:59 36° ESE 16:18:04 14° NE
Cosmos 1354 Rocket 3.9 16:07:46 10° NNW 16:13:01 83° ENE 16:18:15 10° SSE
USA 238 4.1 16:07:09 10° S 16:13:06 36° ESE 16:18:05 15° NE
ASTEX 1 4.0 16:12:06 10° N 16:16:58 60° W 16:21:50 10° SSW
ASTRO E2 4.4 16:16:45 10° WSW 16:20:06 26° SSW 16:22:34 15° SSE
Ariane Rocket 3.4 16:16:26 10° SE 16:21:09 41° ENE 16:25:55 10° N
Cosmos 2058 Rocket 3.5 16:17:21 10° SSW 16:21:41 63° W 16:26:00 10° N
OAO 2 Rocket 3.5 16:17:54 10° W 16:23:12 74° N 16:25:47 31° E
Cosmos 968 Rocket 3.9 16:18:34 10° NNW 16:23:48 67° WSW 16:28:59 10° S
Cosmos 1939 Rocket 3.0 16:21:49 22° SE 16:24:05 47° ENE 16:27:54 10° N
Cosmos 1727 Rocket 4.1 16:21:08 10° SSE 16:27:01 48° E 16:32:55 10° NNE
OAO 3 Rocket 3.2 16:22:36 10° W 16:27:33 78° N 16:29:38 35° ENE
Cosmos 1242 Rocket 2.4 16:23:59 10° N 16:27:40 79° E 16:31:20 10° S
Cosmos 1605 Rocket 4.0 16:21:48 10° N 16:27:53 56° E 16:33:51 10° SSE
USA 234 3.6 16:26:22 25° ENE 16:29:46 42° SE 16:35:53 10° SSW
Shenzhou-11 Module 4.4 16:28:25 10° NW 16:29:50 13° N 16:30:03 13° N
Abrixas rocket 2.4 16:27:31 10° WSW 16:30:32 60° NW 16:31:02 50° N
Meteor 2-10 4.4 16:25:28 10° SSW 16:30:36 65° W 16:35:38 10° N
Cosmos 839 Rocket 4.4 16:30:15 10° NNW 16:36:24 50° ENE 16:39:37 30° ESE
Lacrosse 5 rocket 1.4 16:33:38 10° NNW 16:37:20 50° NE 16:37:20 50° NE
NOSS 3-2 (A) 3.5 16:34:58 10° S 16:40:13 44° ESE 16:41:20 40° E
Cosmos 1908 3.9 16:37:50 10° SSW 16:41:40 56° W 16:45:31 10° N
Cosmos 1934 Rocket 4.3 16:36:23 10° NNW 16:42:40 68° W 16:48:57 10° S
CZ-4 R/B 3.4 16:39:17 10° SSW 16:42:54 31° W 16:46:36 10° NW
Cosmos 2278 Rocket 2.1 16:38:24 10° SSW 16:44:03 87° WNW 16:49:47 10° NNE
H-2A R/B 4.1 16:47:53 13° NNE 16:47:53 13° NNE 16:48:44 10° NNE
Cosmos 1777 Rocket 4.2 16:42:43 10° N 16:47:29 47° ENE 16:47:29 47° ENE
SL-24 R/B 4.5 16:50:51 10° NNE 16:56:47 75° E 17:01:41 10° S
Cosmos 1153 Rocket 4.4 17:13:24 10° N 17:19:33 83° W 17:21:21 49° S
SL-4 R/B 4.4 17:25:00 10° NW 17:26:07 18° WNW 17:26:07 18° WNW
Cosmos 1833 Rocket 3.9 17:30:56 10° NNW 17:33:53 32° N 17:33:53 32° N
ADEOS Rocket 3.5 17:37:34 10° N 17:45:15 76° WNW 17:52:20 10° SSW
Cosmos 2082 Rocket 4.1 17:48:27 10° NNW 17:50:12 21° NNW 17:50:12 21° NNW
USA 234 4.2 18:13:46 43° WNW 18:13:46 43° WNW 18:18:53 10° WSW
H-2A R/B 4.0 17:31:52 10° WSW 18:18:07 78° S 18:18:07 78° S
